Lexington Weather

Lexington, Massachusetts, USA

73°F
9/22/2021 1:54pm 
  • Lexington Conditions: Overcast
  • Temperature: 72.7°F / 22.6°CColder 2.3°F than last hour.
  • Dew Point: 68.9°FIncreased 0.5°Fsince last hour.
  • Relative Humidity: 88%Increased 8.0% since last hour.
  • Wind: Wind from SE SE 6 mph, 10-min avg: 2 mph, gust: 8 mph
  • Barometer: 30.10 in Steady
  • Visibility: 10 miles
  • Rain Today: 0.00 in
  •   

Regional Weather Roundup
for Boston / Norton, MA

        
000
ASUS41 KBOX 171104
RWRBOX

REGIONAL WEATHER ROUNDUP
NATIONAL WEATHER SERVICE BOSTON/NORTON MA
700 AM EDT FRI SEP 17 2021

NOTE:  "FAIR" INDICATES FEW OR NO CLOUDS BELOW 12,000 FEET WITH NO 
SIGNIFICANT WEATHER AND/OR OBSTRUCTIONS TO VISIBILITY.

MAZALL-171200-
EASTERN MASSACHUSETTS
  
CITY           SKY/WX    TMP DP  RH WIND       PRES   REMARKS
BOSTON         CLOUDY    66  62  87 N8        30.34R                  
BEVERLY        CLOUDY    64  63  96 NE8       30.34R                  
LAWRENCE       CLOUDY    61  59  93 N8        30.37R                  
BEDFORD        CLOUDY    63  62  97 NE5       30.34R FOG              
BLUE HILL      NOT AVBL                                               
NORWOOD        CLOUDY    66  63  90 NE5       30.33R                  
MARSHFIELD     CLOUDY    66  64  94 NE6       30.32R                  
PLYMOUTH       CLOUDY    66  65  96 NE6       30.31R FOG              
TAUNTON        FOG       66  64  93 CALM      30.31R VSB 1/2          
NEW BEDFORD    CLOUDY    68  67  96 N6        30.29R                  
$$

MAZALL-171200-
CAPE COD AND THE ISLANDS
  
CITY           SKY/WX    TMP DP  RH WIND       PRES   REMARKS
FALMOUTH       MOCLDY    66  66 100 NE9       30.30R                  
HYANNIS        MOCLDY    68  67  96 NE5       30.29R                  
CHATHAM        CLOUDY    67  66  97 E8        30.31R                  
PROVINCETOWN   CLOUDY    66  65  96 E9        30.33R                  
NANTUCKET      CLOUDY    70  67  90 E10       30.28R                  
MARTHAS VNYRD  CLOUDY    70  69  97 NE10      30.29R                  
$$
 
MAZALL-171200-
CENTRAL AND WESTERN MASSACHUSETTS
  
CITY           SKY/WX    TMP DP  RH WIND       PRES   REMARKS
WORCESTER      FOG       59  58  96 NE7       30.35R VSB<1/4          
FITCHBURG      CLOUDY    60  58  92 N6        30.37R                  
ORANGE         CLOUDY    62  58  86 CALM      30.36R                  
SPRINGFIELD    CLOUDY    64  59  85 NE6       30.32R                  
WESTFIELD      CLOUDY    65  63  93 N5        30.33R                  
NORTH ADAMS    CLOUDY    66  59  78 E9        30.33R                  
PITTSFIELD     CLOUDY    63  60  90 NE6       30.33R                  
$$
 
RIZALL-171200-
RHODE ISLAND
  
CITY           SKY/WX    TMP DP  RH WIND       PRES   REMARKS
PROVIDENCE     DRIZZLE   66  65  96 N8        30.31R FOG              
NEWPORT        CLOUDY    66  66 100 NE7       30.29R                  
BLOCK ISLAND   CLOUDY    67  66  97 NE9G18    30.29R                  
SMITHFIELD     CLOUDY    63  63 100 NE9       30.33R                  
WESTERLY       CLOUDY    64  64 100 NE8       30.28R                  
$$
 
CTZALL-171200-
CONNECTICUT
  
CITY           SKY/WX    TMP DP  RH WIND       PRES   REMARKS
BRADLEY INTL   CLOUDY    65  61  87 N8        30.32R                  
HARTFORD       CLOUDY    67  61  81 N6        30.30R                  
BRIDGEPORT     CLOUDY    67  64  90 NE12      30.27R                  
DANBURY        CLOUDY    67  64  90 NE6       30.30R FOG              
GROTON         CLOUDY    67  64  90 NE8       30.27R                  
NEW HAVEN      CLOUDY    68  66  93 NE7       30.28R                  
CHESTER        CLOUDY    66  64  94 NE7       30.29R                  
MERIDEN        CLOUDY    66  61  84 N6        30.29R                  
WILLIMANTIC    CLOUDY    64  62  93 NE6       30.31R                  
OXFORD         LGT RAIN  63  62  97 NE14G21   30.31R FOG              
$$

MEZ002-015-021-024-NHZ003-005-008-011-012-014-VTZ005-008-171200-
NORTHERN NEW ENGLAND
  
CITY           SKY/WX    TMP DP  RH WIND       PRES   REMARKS
PORTLAND ME    MOCLDY    54  54 100 N3        30.40R                  
BANGOR ME      MOCLDY    50  49  96 CALM      30.41R                  
CONCORD NH     CLOUDY    57  55  93 CALM      30.38R                  
MANCHESTER NH  CLOUDY    61  56  83 N7        30.35R                  
NASHUA NH      CLOUDY    60  60 100 N7        30.37R                  
PORTSMOUTH NH  MOCLDY    60  56  87 NE6       30.37S                  
JAFFREY NH     CLOUDY    59  59 100 VRB3      30.37R                  
KEENE NH       CLOUDY    59  57  93 NE5       30.36R                  
BURLINGTON VT  CLOUDY    64  60  87 S7        30.30R                  
MT. WASHINGTON FOG       46  46 100 W21         N/A  VSB 0            
$$

NYZ052-076-171200-
EASTERN NEW YORK
  
CITY           SKY/WX    TMP DP  RH WIND       PRES   REMARKS
ALBANY         CLOUDY    62  62 100 CALM      30.30R                  
NEW YORK CITY  CLOUDY    70  65  84 NE16      30.24R FOG              
$$
 
ANZALL-171200-
MARINE OBSERVATIONS
  
STATION/POSITION TIME  TEMP    WIND        PRES    VSBY  WAVE
                       AIR SEA DIR/SP/G                  HT/PER
                 (UTC) (F)     (DEG/KT/KT) (MB)    (MI)  (FT/S)
BOSTON BUOY      1040      67   40/ 10/ 12 1027.4R
BUZZARDS BAY     1000           40/ 12/ 13 1026.2R
NANTUCKET SOUND  1050   70 72   60/ 14/ 16 1025.6R         2/ 3
MASS BAY-STELLWA 1004   65      40/  8/ 10 1026.3S  1 7/8  2/ 4
ISLE OF SHOALS   1000   62      30/ 15/ 17 1027.0R
S OF BLOCK IS    1026      69                N/A           4/ 6
$$

......................KEY.........................
  SKY/WX - SKY CONDITION/PRESENT WEATHER
  TMP    - TEMPERATURE IN FAHRENHEIT
  DWPT   - DEWPOINT IN FAHRENHEIT
  RH     - RELATIVE HUMIDITY IN PERCENT
  WIND   - DIRECTION AND SPEED IN MPH
  PRES   - MEAN SEA LEVEL PRESSURE IN INCHES OF HG
  WCI    - WIND CHILL INDEX
  VSB    - VISIBILITY IN MILES
  HX     - HEAT INDEX
  TC     - TEMPERATURE IN CELSIUS
  VRB    - VARIABLE WIND DIRECTION
  N/A    - NOT AVAILABLE
  
      

Other recent Regional Weather Roundups

Wed Sep 22, 1:04pm

Wed Sep 22, 12:05pm

Wed Sep 22, 11:04am

Wed Sep 22, 10:04am

Wed Sep 22, 9:04am

Wed Sep 22, 8:04am

Wed Sep 22, 7:04am

Wed Sep 22, 6:04am

Wed Sep 22, 5:04am

Wed Sep 22, 4:04am

Wed Sep 22, 3:04am

Wed Sep 22, 2:04am

Wed Sep 22, 1:04am

Wed Sep 22, 12:04am

Tue Sep 21, 11:04pm

Tue Sep 21, 10:04pm

Tue Sep 21, 9:04pm

Tue Sep 21, 8:04pm

Tue Sep 21, 7:04pm

Tue Sep 21, 6:04pm

Tue Sep 21, 5:04pm

Tue Sep 21, 4:04pm

Tue Sep 21, 3:04pm

Tue Sep 21, 2:04pm

Tue Sep 21, 1:04pm

Tue Sep 21, 12:04pm

Tue Sep 21, 11:04am

Tue Sep 21, 10:04am

Tue Sep 21, 9:04am

Tue Sep 21, 8:04am

Tue Sep 21, 7:04am

Tue Sep 21, 6:04am

Tue Sep 21, 5:04am

Tue Sep 21, 4:04am

Tue Sep 21, 3:04am

Tue Sep 21, 2:04am

Tue Sep 21, 1:04am

Tue Sep 21, 12:04am

Mon Sep 20, 11:04pm

Mon Sep 20, 10:04pm

Mon Sep 20, 9:04pm

Mon Sep 20, 8:04pm

Mon Sep 20, 7:04pm

Mon Sep 20, 6:04pm

Mon Sep 20, 5:04pm

Mon Sep 20, 4:04pm

Mon Sep 20, 3:04pm

Mon Sep 20, 2:04pm

Mon Sep 20, 1:04pm

Mon Sep 20, 12:04pm

Mon Sep 20, 11:04am

Mon Sep 20, 10:04am

Mon Sep 20, 9:04am

Mon Sep 20, 7:04am

Mon Sep 20, 6:04am

Mon Sep 20, 5:04am

Mon Sep 20, 4:04am

Mon Sep 20, 3:04am

Mon Sep 20, 2:04am

Mon Sep 20, 1:04am

Mon Sep 20, 12:04am

Sun Sep 19, 11:04pm

Sun Sep 19, 10:04pm

Sun Sep 19, 9:04pm

Sun Sep 19, 8:04pm

Sun Sep 19, 7:04pm

Sun Sep 19, 6:04pm

Sun Sep 19, 5:04pm

Sun Sep 19, 4:04pm

Sun Sep 19, 3:04pm

Sun Sep 19, 2:05pm

Sun Sep 19, 1:04pm

Sun Sep 19, 12:04pm

Sun Sep 19, 11:04am

Sun Sep 19, 10:05am

Sun Sep 19, 9:04am

Sun Sep 19, 8:04am

Sun Sep 19, 7:04am

Sun Sep 19, 6:04am

Sun Sep 19, 5:04am

Sun Sep 19, 4:04am

Sun Sep 19, 3:04am

Sun Sep 19, 2:04am

Sun Sep 19, 1:04am

Sun Sep 19, 12:04am

Sat Sep 18, 11:05pm

Sat Sep 18, 10:04pm

Sat Sep 18, 9:04pm

Sat Sep 18, 8:04pm

Sat Sep 18, 7:04pm

Sat Sep 18, 6:04pm

Sat Sep 18, 5:04pm

Sat Sep 18, 4:04pm

Sat Sep 18, 3:04pm

Sat Sep 18, 2:04pm

Sat Sep 18, 1:04pm

Sat Sep 18, 12:04pm

Sat Sep 18, 11:04am

Sat Sep 18, 10:04am

Sat Sep 18, 9:04am

Sat Sep 18, 8:04am

Sat Sep 18, 7:04am

Sat Sep 18, 6:04am

Sat Sep 18, 5:04am

Sat Sep 18, 4:04am

Sat Sep 18, 3:04am

Sat Sep 18, 2:04am

Sat Sep 18, 1:04am

Sat Sep 18, 12:04am

Fri Sep 17, 11:04pm

Fri Sep 17, 10:04pm

Fri Sep 17, 9:04pm

Fri Sep 17, 8:04pm

Fri Sep 17, 7:04pm

Fri Sep 17, 6:04pm

Fri Sep 17, 5:04pm

Fri Sep 17, 4:04pm

Fri Sep 17, 3:04pm

Fri Sep 17, 2:04pm

Fri Sep 17, 1:04pm

Fri Sep 17, 12:05pm

Fri Sep 17, 11:04am

Fri Sep 17, 10:04am

Fri Sep 17, 9:04am

Fri Sep 17, 8:04am

Fri Sep 17, 6:04am

Fri Sep 17, 5:04am

Fri Sep 17, 4:04am

Fri Sep 17, 3:04am

Fri Sep 17, 2:04am

Fri Sep 17, 1:04am

Fri Sep 17, 12:04am

Thu Sep 16, 11:04pm

Thu Sep 16, 10:04pm

Thu Sep 16, 9:04pm

Thu Sep 16, 8:04pm

Thu Sep 16, 7:04pm

Thu Sep 16, 6:04pm

Thu Sep 16, 5:04pm

Thu Sep 16, 4:04pm

Thu Sep 16, 3:04pm

Thu Sep 16, 2:04pm

Thu Sep 16, 1:05pm

Thu Sep 16, 12:04pm

Thu Sep 16, 11:05am

Thu Sep 16, 10:05am

Thu Sep 16, 9:04am

Thu Sep 16, 8:04am

Thu Sep 16, 7:04am

Thu Sep 16, 6:04am

Thu Sep 16, 5:04am

Thu Sep 16, 4:04am

Thu Sep 16, 3:04am

Thu Sep 16, 2:04am

Thu Sep 16, 1:04am

Thu Sep 16, 12:04am

Wed Sep 15, 11:04pm

Wed Sep 15, 10:04pm

Wed Sep 15, 9:04pm

Wed Sep 15, 8:04pm

Wed Sep 15, 7:04pm

Wed Sep 15, 6:04pm

Wed Sep 15, 5:05pm

Wed Sep 15, 4:04pm

Wed Sep 15, 3:04pm

Wed Sep 15, 2:04pm

Meta data:

ID: 74abe066-522c-4460-9523-192b53d44b9b
Link: https://api.weather.gov/products/74abe066-522c-4460-9523-192b53d44b9b